Andover, NJ

9:58 PM EDT on August 28, 2016 (GMT -0400)
Andover

Weather History for K12N - November, 2012

Change the Weather History Date:

Tuesday, November 27, 2012

  Actual Average (KFWN) Record (KFWN)
Temperature  
Mean Temperature 31 °F -  
Max Temperature 34 °F 48 °F 66 °F (1979)
Min Temperature 28 °F 26 °F 11 °F (1993)
Degree Days  
Heating Degree Days 34    
Moisture  
Dew Point 30 °F    
Average Humidity 91    
Maximum Humidity 96    
Minimum Humidity 79    
Precipitation  
Precipitation 0.29 in - - ()
Sea Level Pressure  
Sea Level Pressure 30.27 in    
Wind  
Wind Speed 1 mph (NE)    
Max Wind Speed 6 mph    
Max Gust Speed -    
Averages and records for this station are not official NWS values.
T = Trace of Precipitation, MM = Missing Value Source: NWS Daily Summary

Daily Weather History Graph

Daily Weather History Graph

Search for Another Location

Airport or City:

Trip Planner

Search our weather history database for the weather conditions in past years. The results will help you decide how hot, cold, wet, or windy it might be!

Date:

Astronomy

Nov. 27, 2012 Rise Set
Actual Time 7:00 AM EST 4:32 PM EST
Civil Twilight 6:30 AM EST 5:02 PM EST
Nautical Twilight 5:56 AM EST 5:36 PM EST
Astronomical Twilight 5:23 AM EST 6:09 PM EST
Moon 4:02 PM EST (11/27) 6:03 AM EST (11/27)
Length of Visible Light 10h 32m
Length of Day
9h 31m
Waxing Gibbous, 99% of the Moon is Illuminated
Nov 27
Waxing Gibbous
Nov 28
Full
Dec 6
Last Quarter
Dec 13
New
Dec 20
First Quarter

Hourly Weather History & Observations

Time (EST) Temp. Windchill Dew Point Humidity Pressure Visibility Wind Dir Wind Speed Gust Speed Precip Events Conditions
12:54 AM 28.9 °F - 24.1 °F 82% 30.27 in - Calm Calm - N/A   Unknown
1:54 AM 30.0 °F - 24.1 °F 79% 30.28 in - Calm Calm - N/A   Unknown
2:54 AM 30.0 °F - 25.0 °F 82% 30.28 in - Calm Calm - N/A   Unknown
3:54 AM 32.0 °F - 26.1 °F 79% 30.27 in - Calm Calm - N/A   Unknown
4:54 AM 32.0 °F - 27.0 °F 82% 30.29 in - Calm Calm - N/A   Unknown
5:54 AM 32.0 °F - 28.9 °F 88% 30.29 in - Calm Calm - 0.01 in   Unknown
6:54 AM 32.0 °F - 30.0 °F 92% 30.30 in - Calm Calm - 0.02 in   Unknown
7:54 AM 32.0 °F - 30.9 °F 96% 30.30 in - Calm Calm - 0.02 in   Unknown
8:54 AM 33.1 °F - 32.0 °F 96% 30.30 in - Calm Calm - 0.04 in   Unknown
9:54 AM 33.1 °F - 32.0 °F 96% 30.30 in - Calm Calm - 0.05 in   Unknown
10:54 AM 33.1 °F - 32.0 °F 96% 30.30 in - Calm Calm - 0.04 in   Unknown
11:54 AM 34.0 °F - 32.0 °F 92% 30.28 in - Calm Calm - 0.02 in   Unknown
12:54 PM 34.0 °F 31.0 °F 32.0 °F 92% 30.27 in - NNE 3.5 mph - 0.06 in   Unknown
1:54 PM 34.0 °F 29.8 °F 32.0 °F 92% 30.25 in - NE 4.6 mph - 0.03 in   Unknown
2:54 PM 34.0 °F 29.8 °F 32.0 °F 92% 30.24 in - Variable 4.6 mph - N/A   Unknown
3:54 PM 33.1 °F 27.7 °F 32.0 °F 96% 30.24 in - NE 5.8 mph - N/A   Unknown
4:54 PM 33.1 °F 28.7 °F 32.0 °F 96% 30.24 in - NE 4.6 mph - N/A   Unknown
5:54 PM 34.0 °F 29.8 °F 32.0 °F 92% 30.24 in - Variable 4.6 mph - N/A   Unknown
6:54 PM 34.0 °F 31.0 °F 32.0 °F 92% 30.25 in - Variable 3.5 mph - N/A   Unknown
7:54 PM 33.1 °F 28.7 °F 32.0 °F 96% 30.25 in - NNE 4.6 mph - N/A   Unknown
8:54 PM 34.0 °F 29.8 °F 32.0 °F 92% 30.26 in - NE 4.6 mph - N/A   Unknown
9:54 PM 33.1 °F 28.7 °F 30.9 °F 92% 30.25 in - NNE 4.6 mph - N/A   Unknown
10:54 PM 34.0 °F - 30.9 °F 89% 30.26 in - Calm Calm - N/A   Unknown
11:54 PM 33.1 °F - 30.9 °F 92% 30.26 in - Calm Calm - N/A   Unknown